Regional Weather Roundup
Issued by NWS

Home | Current Version | Previous Version | Graphics & Text | Print | Product List | Glossary On
Versions: 1 2 3 4 5 6 7 8 9 10 11 12 13 14 15 16 17 18 19 20 21 22 23 24 25 26 27 28 29 30 31 32 33 34 35 36 37 38 39 40 41 42 43 44 45 46 47 48 49 50
000
ASUS44 KMEG 220110
RWRTN
TENNESSEE HOURLY STATE WEATHER ROUNDUP
NATIONAL WEATHER SERVICE MEMPHIS TN
800 PM CDT MON JUL 21 2014

TNZ002-004-019-021-049-052-054-088>092-220200-
WEST TENNESSEE

CITY           SKY/WX    TMP DP  RH WIND       PRES   REMARKS
MEMPHIS INTL   PTCLDY    81  65  58 NE5       30.05S
NWS MEMPHIS      N/A     77 N/A N/A MISG        N/A
JACKSON        CLEAR     79  68  69 NW7       30.04F
DYERSBURG      CLEAR     79  63  57 CALM      30.06S
UNION CITY     CLEAR     79  72  78 W3        30.05R
PARIS          MOCLDY    78  68  71 CALM      30.06S
LEXINGTON      CLEAR     79  72  78 CALM      30.04S
SAVANNAH       CLEAR     79  75  87 CALM      30.05R
$$

TNZ008-025-027-028-033-062-065-066-220200-
NORTH MIDDLE TENNESSEE

CITY           SKY/WX    TMP DP  RH WIND       PRES   REMARKS
NASHVILLE      PTCLDY    83  70  64 CALM      30.05R
DICKSON        CLEAR     79  72  78 CALM      30.06R
PORTLAND       CLEAR     82  70  65 CALM      30.05R
CLARKSVILLE    PTCLDY    85  65  51 CALM      30.04R
LEBANON        CLEAR     84  71  65 E3        30.04R
SMYRNA         CLEAR     84  72  67 CALM      30.05R
MURFREESBORO   CLEAR     83  69  62 E3        30.04R
COOKEVILLE     CLEAR     79  75  89 CALM      30.07S
GALLATIN       CLEAR     85  72  65 CALM      30.06R HX  91
CROSSVILLE     MOCLDY    75  69  81 CALM      30.13R
$$

TNZ061-075-076-078-094-096-097-220200-
SOUTH MIDDLE TENNESSEE

CITY           SKY/WX    TMP DP  RH WIND       PRES   REMARKS
LEWISBURG      CLEAR     80  70  71 CALM      30.05R
FAYETTEVILLE   CLEAR     77  72  83 SE7G18    30.06R
TULLAHOMA      CLEAR     79  70  73 CALM      30.08S
WINCHESTER     CLEAR     75  73  94 CALM      30.07R
MCMINNVILLE    CLEAR     81  75  83 CALM      30.07S
COLUMBIA       CLEAR     82  73  74 CALM      30.04R
SHELBYVILLE    CLOUDY    81  73  78 CALM      30.06S
$$

TNZ017-018-042-046-047-220200-
NORTHEAST TENNESSEE

CITY           SKY/WX    TMP DP  RH WIND       PRES   REMARKS
TRI CITIES     CLOUDY    76  65  68 SE3       30.14R
ELIZABETHTON   CLEAR     75  64  69 E8        30.16R
$$

TNZ012-013-036-069-073-074-220200-
CENTRAL EAST TENNESSEE

CITY           SKY/WX    TMP DP  RH WIND       PRES   REMARKS
KNOXVILLE      CLOUDY    80  70  71 SE5       30.07R
OAK RIDGE      CLOUDY    81  72  74 CALM      30.08R
GATLINBURG     CLEAR     79  72  78 CALM      30.08R
MORRISTOWN     CLEAR     75  70  83 E5        30.11R
$$

TNZ083-085-099-220200-
SOUTHEAST TENNESSEE

CITY           SKY/WX    TMP DP  RH WIND       PRES   REMARKS
CHATTANOOGA    CLOUDY    80  70  71 E6        30.06R
$$

SKY/WX REPORTED AS FAIR MEANS FEW OR NO CLOUDS BELOW
12 THOUSAND FEET.



USA.gov is the U.S. government's official web portal to all federal, state and local government web resources and services.